[[{"header":{"parameterUnit":"m.s-1","parameterCategory":1,"la1":30.2991,"la2":30.254,"lo1":-89.0895,"lo2":-89.0444,"dy":0.0017,"dx":0.0017,"nx":28,"ny":28,"refTime":"2025-09-08T21:00:00:Z","depth":0,"parameterNumber":2,"parameterNumberName":"U-component_of_WINDS"},"data":[0,0,0,0,0,0,0,0,0,0,0,0,0,0,0,0,0,0,0,0,0,0,0,0,0,0,0,0,0,0,0,0,0,0,0,0,0,0,0,0,0,0,0,0,0,0,0,0,0,0,0,0,0,0,0,0,0,0,-0.5331,-0.533,0,-0.5246,-0.5245,-0.5244,-0.5178,-0.5178,-0.5177,-0.5177,-0.5086,-0.5084,-0.5082,0,0,0,0,0,0,0,0,0,0,0,0,0,-0.5433,-0.5432,-0.5331,-0.533,-0.5329,-0.5246,-0.5245,-0.5243,-0.5178,-0.5178,-0.5177,-0.5176,-0.5086,-0.5084,-0.5082,0,0,0,0,0,0,0,0,0,0,0,0,0,-0.5373,-0.5431,-0.5331,-0.5287,-0.5282,-0.5246,-0.5245,-0.5243,-0.5179,-0.5178,-0.5177,-0.5176,-0.5087,-0.5084,-0.5081,-0.5082,0,0,-0.5073,-0.5072,0,0,0,0,0,0,0,0,-0.5376,-0.5369,-0.5294,-0.529,-0.5284,-0.5222,-0.5247,-0.5189,-0.5179,-0.5218,-0.5177,-0.5176,-0.5131,-0.5125,-0.5111,-0.5078,-0.5074,-0.5073,-0.5071,-0.507,-0.5069,0,0,0,0,0,0,0,-0.538,-0.5372,-0.5297,-0.5293,-0.5287,-0.5269,-0.526,-0.5236,-0.5181,-0.5214,-0.5209,-0.52,-0.5128,-0.5114,-0.5108,-0.5073,-0.5073,-0.507,-0.5069,-0.5067,-0.5032,-0.5033,0,0,0,0,0,0,-0.5392,-0.5376,-0.53,-0.5295,-0.5329,-0.5268,-0.5257,-0.5243,-0.5181,-0.517,-0.5201,-0.5198,-0.5119,-0.5111,-0.5105,-0.5099,-0.507,-0.5067,-0.5066,-0.5031,-0.5032,-0.5033,0,0,0,0,0,0,-0.5395,-0.5386,-0.5303,-0.5334,-0.5322,-0.5267,-0.5251,-0.5242,-0.5227,-0.5171,-0.516,-0.5196,-0.5118,-0.5109,-0.5088,-0.5095,-0.5066,-0.5063,-0.5031,-0.5032,-0.5033,-0.5089,0,0,0,0,0,0,-0.5398,-0.5387,-0.5388,-0.5335,-0.5321,-0.529,-0.5252,-0.524,-0.5222,-0.5217,-0.5164,-0.5154,-0.5116,-0.5092,-0.5085,-0.5091,-0.5061,-0.503,-0.5031,-0.5032,-0.5087,-0.5092,-0.5097,0,0,0,0,0,-0.5402,-0.5408,-0.5389,-0.538,-0.5321,-0.529,-0.5282,-0.524,-0.5223,-0.5223,-0.5186,-0.5155,-0.5096,-0.5091,-0.5082,-0.5087,-0.5029,-0.5031,-0.5032,-0.5084,-0.5091,-0.5097,0,0,0,0,0,0,-0.5463,-0.54,-0.5378,-0.5367,-0.5335,-0.5279,-0.5278,-0.5249,-0.522,-0.5216,-0.5164,-0.5152,-0.5136,-0.5109,-0.5105,-0.5082,-0.5058,-0.5058,-0.5101,-0.5107,-0.5112,-0.5118,-0.5059,0,0,0,0,0,-0.5476,-0.5457,-0.5402,-0.5398,-0.5383,-0.5333,-0.5318,-0.5288,-0.5252,-0.5238,-0.52,-0.5165,-0.5137,-0.5121,-0.5093,-0.5082,-0.5068,-0.5081,-0.5087,-0.5091,-0.5092,-0.5081,-0.5085,-0.5039,-0.5039,-0.5038,0,0,-0.5501,-0.5464,-0.5456,-0.5409,-0.5381,-0.5361,-0.5322,-0.5304,-0.5287,-0.5234,-0.5212,-0.5183,-0.514,-0.5124,-0.5114,-0.5101,-0.5101,-0.5093,-0.5098,-0.5095,-0.5083,-0.5088,-0.5092,-0.504,-0.5039,-0.5039,0,0,-0.5537,-0.5508,-0.55,-0.5472,-0.5429,-0.5395,-0.5393,-0.5342,-0.532,-0.5297,-0.5256,-0.5236,-0.5191,-0.5161,-0.514,-0.5162,-0.5131,-0.5154,-0.5182,-0.5172,-0.5176,-0.5178,-0.5184,-0.5187,-0.5155,-0.5155,-0.5155,0,-0.5573,-0.5544,-0.5499,-0.5482,-0.5462,-0.5414,-0.5403,-0.5378,-0.5328,-0.5314,-0.5299,-0.524,-0.5208,-0.5183,-0.5188,-0.5173,-0.5167,-0.516,-0.5179,-0.5181,-0.5183,-0.5188,-0.5191,-0.5158,-0.5157,-0.5157,-0.5157,0,-0.5589,-0.5569,-0.5567,-0.552,-0.55,-0.5487,-0.5438,-0.5423,-0.5394,-0.5361,-0.5337,-0.5296,-0.5258,-0.525,-0.5222,-0.5219,-0.5212,-0.5189,-0.5163,-0.5192,-0.5195,-0.5196,-0.5162,-0.5161,-0.516,-0.5159,0,0,-0.5662,-0.559,-0.559,-0.5567,-0.5515,-0.5497,-0.548,-0.5444,-0.543,-0.5396,-0.5379,-0.5341,-0.5319,-0.5295,-0.5263,-0.5255,-0.5271,-0.5232,-0.523,-0.5239,-0.5263,-0.528,-0.5283,-0.5251,-0.5251,-0.5251,-0.5266,0,-0.5689,-0.5658,-0.5616,-0.5598,-0.5577,-0.5529,-0.5514,-0.548,-0.5448,-0.5424,-0.5389,-0.5362,-0.5336,-0.532,-0.531,-0.5272,-0.5275,-0.527,-0.5232,-0.5232,-0.5244,-0.5285,-0.5303,-0.5319,-0.5267,-0.5268,-0.5268,0,-0.5716,-0.5685,-0.5665,-0.5612,-0.5602,-0.5589,-0.5551,-0.5529,-0.5487,-0.5465,-0.5437,-0.5402,-0.5379,-0.5357,-0.5323,-0.5321,-0.5303,-0.5281,-0.5281,-0.5275,-0.5251,-0.5278,-0.5324,-0.5326,-0.527,-0.527,-0.5269,0,-0.5768,-0.5722,-0.5703,-0.5685,-0.5624,-0.5615,-0.5589,-0.5547,-0.5527,-0.5492,-0.5478,-0.5442,-0.5421,-0.5393,-0.5347,-0.5336,-0.5318,-0.5292,-0.5296,-0.5297,-0.5294,-0.5295,-0.5335,-0.5285,-0.5285,-0.5285,-0.5285,0,-0.5801,-0.5791,-0.5726,-0.5714,-0.5699,-0.5651,-0.5637,-0.5606,-0.5569,-0.5548,-0.5505,-0.5486,-0.5429,-0.5402,-0.5367,-0.5343,-0.5334,-0.5314,-0.5304,-0.5317,-0.5319,-0.5304,-0.5301,-0.5285,-0.5285,-0.5285,-0.5285,0,-0.5858,-0.5814,-0.579,-0.5734,-0.5719,-0.5711,-0.5662,-0.5647,-0.5613,-0.5587,-0.5579,-0.5524,-0.5491,-0.5443,-0.5395,-0.5371,-0.5352,-0.5337,-0.5366,-0.536,-0.5366,-0.5366,-0.5397,-0.5398,-0.5349,-0.5349,-0.535,0,-0.5881,-0.5872,-0.5814,-0.5798,-0.5773,-0.5748,-0.5727,-0.5678,-0.5657,-0.5608,-0.5599,-0.5562,-0.5531,-0.5479,-0.5434,-0.5396,-0.5379,-0.5393,-0.5373,-0.5386,-0.5377,-0.5378,-0.5375,-0.5397,-0.5398,-0.5399,-0.5399,0,-0.5927,-0.5905,-0.5877,-0.5841,-0.5817,-0.5786,-0.5753,-0.5742,-0.5685,-0.5663,-0.5629,-0.5605,-0.5555,-0.5519,-0.5475,-0.5445,-0.5412,-0.5406,-0.5404,-0.5417,-0.5433,-0.5422,-0.5377,-0.5405,-0.5405,-0.5404,-0.5404,-0.5404,-0.5966,-0.5954,-0.5912,-0.5881,-0.5851,-0.582,-0.5803,-0.5766,-0.5738,-0.5694,-0.5667,-0.5633,-0.5588,-0.5526,-0.5498,-0.5469,-0.5456,-0.5454,-0.5454,-0.5454,-0.5457,-0.5439,-0.5461,-0.5461,-0.5461,-0.5461,-0.546,0,-0.6007,-0.5977,-0.595,-0.5905,-0.588,-0.5852,-0.5813,-0.5793,-0.5765,-0.5727,-0.5696,-0.5656,-0.5619,-0.5571,-0.553,-0.5516,-0.55,-0.5507,-0.5507,-0.55,-0.5473,-0.5477,-0.5521,-0.5521,-0.5521,-0.5521,-0.5521,-0.5521,-0.6026,-0.6004,-0.5977,-0.5939,-0.5908,-0.5876,-0.5856,-0.5826,-0.5795,-0.5752,-0.5722,-0.5691,-0.5647,-0.5603,-0.5567,-0.5553,-0.554,-0.5551,-0.5533,-0.5508,-0.5502,-0.5497,-0.5501,-0.5549,-0.5549,-0.5562,-0.5563,-0.5563]},{"header":{"parameterUnit":"m.s-1","parameterCategory":1,"la1":30.2991,"la2":30.254,"lo1":-89.0895,"lo2":-89.0444,"dy":0.0017,"dx":0.0017,"nx":28,"ny":28,"refTime":"2025-09-08T21:00:00:Z","depth":0,"parameterNumber":3,"parameterNumberName":"V-component_of_WINDS"},"data":[0,0,0,0,0,0,0,0,0,0,0,0,0,0,0,0,0,0,0,0,0,0,0,0,0,0,0,0,0,0,0,0,0,0,0,0,0,0,0,0,0,0,0,0,0,0,0,0,0,0,0,0,0,0,0,0,0,0,-3.1604,-3.1603,0,-3.1575,-3.1575,-3.1575,-3.1549,-3.1549,-3.1548,-3.1548,-3.1517,-3.1517,-3.1516,0,0,0,0,0,0,0,0,0,0,0,0,0,-3.1634,-3.1633,-3.1604,-3.1603,-3.1603,-3.1575,-3.1575,-3.1575,-3.1549,-3.1549,-3.1548,-3.1548,-3.1518,-3.1517,-3.1516,0,0,0,0,0,0,0,0,0,0,0,0,0,-3.1614,-3.1633,-3.1604,-3.1587,-3.1585,-3.1575,-3.1575,-3.1575,-3.1549,-3.1549,-3.1548,-3.1548,-3.1518,-3.1517,-3.1516,-3.1521,0,0,-3.1514,-3.1514,0,0,0,0,0,0,0,0,-3.1616,-3.1613,-3.159,-3.1588,-3.1586,-3.1565,-3.1574,-3.1556,-3.1549,-3.1563,-3.1548,-3.1547,-3.1534,-3.1531,-3.1527,-3.1519,-3.1518,-3.1514,-3.1513,-3.1513,-3.1513,0,0,0,0,0,0,0,-3.1617,-3.1614,-3.1592,-3.1589,-3.1587,-3.158,-3.1577,-3.1571,-3.1551,-3.1561,-3.156,-3.1557,-3.1532,-3.1528,-3.1526,-3.1517,-3.1514,-3.1513,-3.1513,-3.1512,-3.151,-3.151,0,0,0,0,0,0,-3.1621,-3.1616,-3.1593,-3.1592,-3.16,-3.158,-3.1576,-3.1572,-3.1551,-3.1547,-3.1557,-3.1556,-3.153,-3.1527,-3.1525,-3.1528,-3.1513,-3.1512,-3.1512,-3.151,-3.151,-3.1511,0,0,0,0,0,0,-3.1622,-3.1619,-3.1594,-3.1603,-3.1599,-3.158,-3.1576,-3.1572,-3.1567,-3.1548,-3.1544,-3.1556,-3.1529,-3.1526,-3.1522,-3.1526,-3.1512,-3.1511,-3.1509,-3.151,-3.151,-3.1533,0,0,0,0,0,0,-3.1623,-3.162,-3.1622,-3.1603,-3.1599,-3.1592,-3.1576,-3.1572,-3.1566,-3.1564,-3.1546,-3.1542,-3.1529,-3.1523,-3.1521,-3.1525,-3.1511,-3.1509,-3.1509,-3.151,-3.1532,-3.1535,-3.1537,0,0,0,0,0,-3.1624,-3.1629,-3.1622,-3.1619,-3.1601,-3.1593,-3.159,-3.1574,-3.1567,-3.1568,-3.1555,-3.1543,-3.1526,-3.1523,-3.152,-3.1524,-3.1508,-3.1509,-3.151,-3.1531,-3.1534,-3.1537,0,0,0,0,0,0,-3.1648,-3.1626,-3.1618,-3.1618,-3.1607,-3.1588,-3.1589,-3.1578,-3.1569,-3.1568,-3.1548,-3.1544,-3.1542,-3.1532,-3.1529,-3.1526,-3.1515,-3.1516,-3.1532,-3.1535,-3.1538,-3.1539,-3.151,0,0,0,0,0,-3.1654,-3.1649,-3.163,-3.1631,-3.1627,-3.1609,-3.1605,-3.1594,-3.1582,-3.1577,-3.1564,-3.1552,-3.1544,-3.1539,-3.1531,-3.1531,-3.1526,-3.1532,-3.1535,-3.1537,-3.1537,-3.1535,-3.1537,-3.1514,-3.1514,-3.1514,0,0,-3.1664,-3.1652,-3.165,-3.1636,-3.1626,-3.1621,-3.1605,-3.1601,-3.1597,-3.1576,-3.1571,-3.1561,-3.1547,-3.1544,-3.1542,-3.1536,-3.1542,-3.1538,-3.154,-3.1539,-3.1536,-3.1538,-3.154,-3.1514,-3.1514,-3.1514,0,0,-3.1681,-3.1672,-3.1671,-3.1662,-3.1648,-3.1637,-3.1637,-3.1619,-3.1612,-3.1606,-3.1591,-3.1585,-3.1572,-3.1562,-3.1555,-3.1568,-3.1556,-3.1566,-3.1578,-3.1576,-3.1578,-3.158,-3.1583,-3.1585,-3.1567,-3.1567,-3.1567,0,-3.1696,-3.1688,-3.1672,-3.1669,-3.1662,-3.1644,-3.1643,-3.1635,-3.1619,-3.1615,-3.1608,-3.1591,-3.158,-3.1574,-3.1578,-3.1573,-3.1572,-3.1568,-3.158,-3.1581,-3.1582,-3.1585,-3.1586,-3.1568,-3.1568,-3.1568,-3.1568,0,-3.1707,-3.1702,-3.1703,-3.1688,-3.1682,-3.168,-3.1663,-3.1659,-3.1648,-3.1637,-3.1631,-3.1617,-3.1605,-3.1603,-3.1593,-3.1596,-3.1592,-3.1583,-3.1572,-3.1586,-3.1588,-3.1589,-3.157,-3.1569,-3.1569,-3.1569,0,0,-3.1737,-3.1714,-3.1714,-3.1707,-3.169,-3.1685,-3.1682,-3.1671,-3.1667,-3.1657,-3.1652,-3.1642,-3.1633,-3.1625,-3.1613,-3.1612,-3.1621,-3.1603,-3.1602,-3.1606,-3.1622,-3.1629,-3.163,-3.1614,-3.1614,-3.1614,-3.1623,0,-3.175,-3.1743,-3.1729,-3.1726,-3.1721,-3.1703,-3.17,-3.1689,-3.1678,-3.1671,-3.1659,-3.1651,-3.1641,-3.1636,-3.1634,-3.1621,-3.1624,-3.162,-3.1608,-3.1608,-3.1611,-3.1632,-3.1638,-3.1648,-3.1624,-3.1624,-3.1624,0,-3.1764,-3.1755,-3.1752,-3.1735,-3.1732,-3.1729,-3.1717,-3.1712,-3.1698,-3.1691,-3.1682,-3.1669,-3.1664,-3.1654,-3.1645,-3.1643,-3.1637,-3.163,-3.163,-3.1627,-3.1616,-3.1628,-3.165,-3.1651,-3.1626,-3.1626,-3.1626,0,-3.1785,-3.1772,-3.1768,-3.1763,-3.1743,-3.1741,-3.1733,-3.172,-3.1713,-3.1703,-3.1699,-3.1688,-3.1681,-3.1672,-3.1657,-3.1651,-3.1649,-3.1638,-3.1641,-3.1642,-3.1641,-3.1641,-3.1661,-3.1639,-3.1639,-3.1639,-3.1639,0,-3.18,-3.1798,-3.1777,-3.1775,-3.1772,-3.1756,-3.1753,-3.1743,-3.1731,-3.1726,-3.171,-3.1705,-3.1685,-3.1678,-3.1665,-3.1659,-3.1657,-3.1649,-3.1646,-3.165,-3.1651,-3.1645,-3.1644,-3.1639,-3.1639,-3.1639,-3.1639,0,-3.1822,-3.1808,-3.1803,-3.1785,-3.178,-3.1779,-3.1763,-3.176,-3.1749,-3.1742,-3.1739,-3.1721,-3.1711,-3.1695,-3.168,-3.1672,-3.1668,-3.1662,-3.1672,-3.167,-3.1673,-3.1673,-3.169,-3.169,-3.1669,-3.167,-3.167,0,-3.1832,-3.1831,-3.1813,-3.1809,-3.1801,-3.1794,-3.1788,-3.1772,-3.1766,-3.175,-3.1748,-3.1738,-3.1728,-3.1713,-3.1698,-3.1686,-3.168,-3.1687,-3.1678,-3.1682,-3.1679,-3.1678,-3.1678,-3.1688,-3.1689,-3.1689,-3.1689,0,-3.1851,-3.1844,-3.1837,-3.1826,-3.182,-3.181,-3.18,-3.1797,-3.1779,-3.1773,-3.1763,-3.1755,-3.1741,-3.173,-3.1716,-3.1706,-3.1694,-3.1692,-3.1692,-3.1696,-3.1701,-3.1697,-3.1676,-3.1691,-3.1691,-3.1691,-3.1691,-3.1691,-3.1867,-3.1864,-3.1851,-3.1843,-3.1834,-3.1825,-3.1821,-3.1809,-3.1801,-3.1788,-3.1779,-3.1769,-3.1755,-3.1735,-3.1726,-3.1718,-3.1713,-3.1713,-3.1713,-3.1713,-3.1714,-3.1703,-3.1716,-3.1715,-3.1715,-3.1715,-3.1715,0,-3.1884,-3.1875,-3.1867,-3.1854,-3.1847,-3.1838,-3.1826,-3.1821,-3.1813,-3.1801,-3.1792,-3.1781,-3.177,-3.1754,-3.1742,-3.1738,-3.1732,-3.1735,-3.1734,-3.1732,-3.172,-3.1721,-3.174,-3.174,-3.174,-3.174,-3.174,-3.174,-3.1892,-3.1887,-3.1879,-3.1869,-3.1859,-3.1851,-3.1845,-3.1836,-3.1826,-3.1814,-3.1806,-3.1796,-3.1782,-3.1768,-3.1758,-3.1753,-3.1749,-3.1753,-3.1747,-3.1736,-3.1733,-3.1731,-3.1732,-3.1753,-3.1753,-3.176,-3.176,-3.176]}]]